GW2836 Weather Reports


Display with metric or nautical units.
time (UTC)temp
F
wind
direction
speed
MPH
gust
MPH
rain 1hr
in
rain 24hr
in
rain mn
in
humidity
%
barometer
mb
20260504201557 46 205 1.0 8.0 0.00 0.00 0.00 52 1016.2
20260504194552 49 240 1.0 14.0 0.00 0.00 0.00 44 1016.5
20260504193054 53 174 5.0 14.0 0.00 0.00 0.00 38 1016.5
20260504191557 52 219 5.0 15.0 0.00 0.00 0.00 37 1016.5
20260504190053 51 255 3.0 15.0 0.00 0.00 0.00 39 1016.4
20260504184558 51 192 5.0 11.0 0.00 0.00 0.00 39 1016.8
20260504183053 50 25 2.0 7.0 0.00 0.00 0.00 41 1016.8
20260504181549 48 124 2.0 7.0 0.00 0.00 0.00 46 1017.0
20260504180051 46 224 1.0 7.0 0.00 0.00 0.00 50 1017.4
20260504174554 45 115 1.0 10.0 0.00 0.00 0.00 50 1017.5
20260504173050 44 131 1.0 13.0 0.00 0.00 0.00 50 1017.4
20260504171554 44 288 3.0 10.0 0.00 0.00 0.00 50 1017.1
20260504081553 39 268 1.0 3.0 0.00 0.00 0.00 38 1018.5
20260504044603 40 283 0.0 3.0 0.00 0.00 0.00 41 1020.2
20260504043055 40 281 0.0 4.0 0.00 0.00 0.00 42 1020.2
20260504041554 39 269 0.0 2.0 0.00 0.00 0.00 43 1020.2
20260504040107 40 280 0.0 1.0 0.00 0.00 0.00 43 1020.3
20260504034615 40 284 0.0 2.0 0.00 0.00 0.00 44 1020.3
20260504033055 41 280 0.0 2.0 0.00 0.00 0.00 44 1020.2
20260504031555 40 270 0.0 1.0 0.00 0.00 0.00 46 1020.4
20260504030120 40 0 0.0 1.0 0.00 0.00 0.00 47 1020.2
20260504024559 41 243 0.0 1.0 0.00 0.00 0.00 47 1020.2
20260504023054 43 0 1.0 6.0 0.00 0.00 0.00 43 1020.2
20260504021557 43 240 0.0 2.0 0.00 0.00 0.00 45 1020.2
20260504020107 43 203 0.0 5.0 0.00 0.00 0.00 44 1020.1
20260504014600 43 207 0.0 2.0 0.00 0.00 0.00 45 1020.3
20260504013059 44 219 0.0 1.0 0.00 0.00 0.00 45 1020.1
20260504011554 45 0 0.0 1.0 0.00 0.00 0.00 42 1020.1
20260504010052 46 112 0.0 1.0 0.00 0.00 0.00 42 1020.2
20260504004557 46 0 1.0 4.0 0.00 0.00 0.00 42 1020.3
20260504003056 47 10 0.0 5.0 0.00 0.00 0.00 41 1020.5
20260504001605 47 0 1.0 5.0 0.00 0.00 0.00 43 1020.9
20260504000056 47 312 1.0 3.0 0.00 0.00 0.00 41 1020.9
20260503234552 47 121 0.0 15.0 0.00 0.00 0.00 42 1020.7
20260503233059 48 239 6.0 18.0 0.00 0.00 0.00 38 1021.4
20260503231554 51 116 4.0 13.0 0.00 0.00 0.00 33 1021.1
20260503230054 51 257 4.0 14.0 0.00 0.00 0.00 31 1020.9
20260503224557 54 200 5.0 11.0 0.00 0.00 0.00 26 1020.6
20260503223059 53 132 1.0 6.0 0.00 0.00 0.00 31 1020.3
20260503221603 51 82 2.0 6.0 0.00 0.00 0.00 38 1020.4
20260503220055 51 64 3.0 7.0 0.00 0.00 0.00 36 1020.9
20260503214600 53 92 1.0 4.0 0.00 0.00 0.00 32 1020.9
20260503213052 51 131 2.0 8.0 0.00 0.00 0.00 32 1021.1
20260503211556 49 49 2.0 9.0 0.00 0.00 0.00 35 1021.6
20260503210055 49 124 0.0 15.0 0.00 0.00 0.00 35 1021.8
20260503204559 50 264 4.0 10.0 0.00 0.00 0.00 32 1022.1
20260503203053 51 133 3.0 6.0 0.00 0.00 0.00 30 1021.9